Thomson Majesty — 9HA2188 — position and weather

sailwx.info

Track history (hours):
 
Tides and Currents Weather Stations Pressure Air Temp Water Temp Dewpoint Dewpoint Depression Visibility Wind Speed Wind Dir Waves Ship Positions

Thomson Majesty

Last reported at 2017-Feb-23 02:33 UTC. Time now 2017-Feb-23 02:35 UTC.
Position N 28°38' W 013°36'.

Length 207 m; draft 6.2 m.

Type: Ship. MMSI: 248124000.

Date/timePositionNaut miles runAvg speedWind from/ knotsBaromVisibWave heightAir tempDewpointWater temp
2017-Feb-23 02:33N 28°38' W 013°36'1 1.2
2017-Feb-23 01:33N 28°39' W 013°35'1 1.2
2017-Feb-23 00:33N 28°40' W 013°34'1 0.9
2017-Feb-22 23:31N 28°40' W 013°34'1 1.2
2017-Feb-22 22:32N 28°41' W 013°33'1 1.3
2017-Feb-22 21:33N 28°42' W 013°32'2 2.2
2017-Feb-22 20:32N 28°40' W 013°31'4 3.6
2017-Feb-22 19:32N 28°41' W 013°27'1212.6
2017-Feb-22 18:33N 28°53' W 013°31'5 2.3
2017-Feb-22 16:31N 28°58' W 013°32'0 0.0
2017-Feb-22 15:31N 28°58' W 013°32'0 0.0
2017-Feb-22 14:31N 28°58' W 013°32'0 0.0
2017-Feb-22 13:31N 28°58' W 013°32'0 0.0
2017-Feb-22 12:25N 28°58' W 013°32'0 0.0
2017-Feb-22 11:31N 28°58' W 013°32'0 0.0
2017-Feb-22 10:31N 28°58' W 013°32'0 0.0
2017-Feb-22 09:25N 28°58' W 013°32'0 0.0
2017-Feb-22 08:31N 28°58' W 013°32'0 0.1
2017-Feb-22 07:33N 28°58' W 013°32'7 7.4
2017-Feb-22 06:33N 28°52' W 013°36'1111.0
2017-Feb-22 05:32N 28°49' W 013°49'1111.2
2017-Feb-22 04:32N 28°55' W 013°59'  
2017-Feb-18 10:32N 28°08' W 015°25'0 0.0
2017-Feb-18 09:32N 28°08' W 015°25'0 0.0
2017-Feb-18 08:32N 28°08' W 015°25'0 0.0
2017-Feb-18 07:32N 28°08' W 015°25'2 1.7
2017-Feb-18 06:33N 28°07' W 015°24'1414.4
2017-Feb-18 05:33N 28°20' W 015°18'1111.2
2017-Feb-18 04:33N 28°28' W 015°27'1211.7
2017-Feb-18 03:33N 28°34' W 015°38'1111.3
2017-Feb-18 02:33N 28°27' W 015°48'1010.4
2017-Feb-18 01:33N 28°22' W 015°58'1211.8
2017-Feb-18 00:33N 28°27' W 016°10'4 3.1
2017-Feb-17 23:22N 28°28' W 016°15'0 0.0
2017-Feb-17 22:04N 28°28' W 016°15'0 0.0
2017-Feb-17 21:25N 28°28' W 016°15'0 0.0
2017-Feb-17 20:10N 28°28' W 016°15'0 0.0
2017-Feb-17 19:25N 28°28' W 016°15'0 0.0
2017-Feb-17 18:28N 28°28' W 016°15'0 0.0
2017-Feb-17 17:28N 28°28' W 016°15'0 0.0
2017-Feb-17 16:28N 28°28' W 016°15'0 0.0
2017-Feb-17 15:28N 28°28' W 016°15'0 0.0
2017-Feb-17 14:31N 28°28' W 016°15'0 0.0
2017-Feb-17 13:31N 28°28' W 016°15'0 0.0
2017-Feb-17 12:28N 28°28' W 016°15'0 0.0
2017-Feb-17 11:31N 28°28' W 016°15'0 0.0
2017-Feb-17 10:31N 28°28' W 016°15'0 0.0
2017-Feb-17 09:31N 28°28' W 016°15'0 0.0
2017-Feb-17 08:07N 28°28' W 016°15'0 0.0
2017-Feb-17 07:25N 28°28' W 016°15'0 0.0
2017-Feb-17 06:25N 28°28' W 016°15'0 0.0
2017-Feb-17 05:28N 28°28' W 016°15'8 8.6
2017-Feb-17 04:33N 28°27' W 016°06'1515.5
2017-Feb-17 03:33N 28°33' W 015°49'1615.6
2017-Feb-17 02:33N 28°40' W 015°33'1616.5
2017-Feb-17 01:33N 28°41' W 015°15'1414.2
2017-Feb-17 00:33N 28°43' W 014°59'1312.9
2017-Feb-16 23:33N 28°44' W 014°44'1312.9
2017-Feb-16 22:33N 28°46' W 014°29'1313.0
2017-Feb-16 21:33N 28°47' W 014°15'1312.8
2017-Feb-16 20:33N 28°48' W 013°60'1312.6
2017-Feb-16 19:33N 28°49' W 013°46'1313.0
2017-Feb-16 18:33N 28°56' W 013°33'3 2.6
2017-Feb-16 17:30N 28°58' W 013°32'0 0.0
2017-Feb-16 15:24N 28°58' W 013°32'0 0.0
2017-Feb-16 14:30N 28°58' W 013°32'0 0.0
2017-Feb-16 13:30N 28°58' W 013°32'0 0.0
2017-Feb-16 12:30N 28°58' W 013°32'0 0.0
2017-Feb-16 11:33N 28°58' W 013°32'0 0.0
2017-Feb-16 10:33N 28°58' W 013°32'0 0.0
2017-Feb-16 09:24N 28°58' W 013°32'0 0.0
2017-Feb-16 08:30N 28°58' W 013°32'8 8.5
2017-Feb-16 07:33N 28°59' W 013°23'1716.6
2017-Feb-16 06:33N 29°06' W 013°05'1716.7
2017-Feb-16 05:33N 29°12' W 012°48'1716.8
2017-Feb-16 04:33N 29°19' W 012°30'2217.3
2017-Feb-16 03:19N 29°28' W 012°07'1317.5
2017-Feb-16 02:33N 29°33' W 011°53'1817.4
2017-Feb-16 01:32N 29°40' W 011°35'1717.1
2017-Feb-16 00:33N 29°47' W 011°17'1817.4
2017-Feb-15 23:29N 29°54' W 010°57'1617.3
2017-Feb-15 22:33N 30°01' W 010°40'  
Track history (hours):
 
Tides and Currents Weather Stations Pressure Air Temp Water Temp Dewpoint Dewpoint Depression Visibility Wind Speed Wind Dir Waves Ship Positions

Thomson Majesty

Last reported at 2017-Feb-23 02:33 UTC. Time now 2017-Feb-23 02:35 UTC.
Position N 28°38' W 013°36'.

Length 207 m; draft 6.2 m.

Type: Ship. MMSI: 248124000.

Date/timePositionNaut miles runAvg speedWind from/ knotsBaromVisibWave heightAir tempDewpointWater temp
2017-Feb-23 02:33N 28°38' W 013°36'1 1.2
2017-Feb-23 01:33N 28°39' W 013°35'1 1.2
2017-Feb-23 00:33N 28°40' W 013°34'1 0.9
2017-Feb-22 23:31N 28°40' W 013°34'1 1.2
2017-Feb-22 22:32N 28°41' W 013°33'1 1.3
2017-Feb-22 21:33N 28°42' W 013°32'2 2.2
2017-Feb-22 20:32N 28°40' W 013°31'4 3.6
2017-Feb-22 19:32N 28°41' W 013°27'1212.6
2017-Feb-22 18:33N 28°53' W 013°31'5 2.3
2017-Feb-22 16:31N 28°58' W 013°32'0 0.0
2017-Feb-22 15:31N 28°58' W 013°32'0 0.0
2017-Feb-22 14:31N 28°58' W 013°32'0 0.0
2017-Feb-22 13:31N 28°58' W 013°32'0 0.0
2017-Feb-22 12:25N 28°58' W 013°32'0 0.0
2017-Feb-22 11:31N 28°58' W 013°32'0 0.0
2017-Feb-22 10:31N 28°58' W 013°32'0 0.0
2017-Feb-22 09:25N 28°58' W 013°32'0 0.0
2017-Feb-22 08:31N 28°58' W 013°32'0 0.1
2017-Feb-22 07:33N 28°58' W 013°32'7 7.4
2017-Feb-22 06:33N 28°52' W 013°36'1111.0
2017-Feb-22 05:32N 28°49' W 013°49'1111.2
2017-Feb-22 04:32N 28°55' W 013°59'  
2017-Feb-18 10:32N 28°08' W 015°25'0 0.0
2017-Feb-18 09:32N 28°08' W 015°25'0 0.0
2017-Feb-18 08:32N 28°08' W 015°25'0 0.0
2017-Feb-18 07:32N 28°08' W 015°25'2 1.7
2017-Feb-18 06:33N 28°07' W 015°24'1414.4
2017-Feb-18 05:33N 28°20' W 015°18'1111.2
2017-Feb-18 04:33N 28°28' W 015°27'1211.7
2017-Feb-18 03:33N 28°34' W 015°38'1111.3
2017-Feb-18 02:33N 28°27' W 015°48'1010.4
2017-Feb-18 01:33N 28°22' W 015°58'1211.8
2017-Feb-18 00:33N 28°27' W 016°10'4 3.1
2017-Feb-17 23:22N 28°28' W 016°15'0 0.0
2017-Feb-17 22:04N 28°28' W 016°15'0 0.0
2017-Feb-17 21:25N 28°28' W 016°15'0 0.0
2017-Feb-17 20:10N 28°28' W 016°15'0 0.0
2017-Feb-17 19:25N 28°28' W 016°15'0 0.0
2017-Feb-17 18:28N 28°28' W 016°15'0 0.0
2017-Feb-17 17:28N 28°28' W 016°15'0 0.0
2017-Feb-17 16:28N 28°28' W 016°15'0 0.0
2017-Feb-17 15:28N 28°28' W 016°15'0 0.0
2017-Feb-17 14:31N 28°28' W 016°15'0 0.0
2017-Feb-17 13:31N 28°28' W 016°15'0 0.0
2017-Feb-17 12:28N 28°28' W 016°15'0 0.0
2017-Feb-17 11:31N 28°28' W 016°15'0 0.0
2017-Feb-17 10:31N 28°28' W 016°15'0 0.0
2017-Feb-17 09:31N 28°28' W 016°15'0 0.0
2017-Feb-17 08:07N 28°28' W 016°15'0 0.0
2017-Feb-17 07:25N 28°28' W 016°15'0 0.0
2017-Feb-17 06:25N 28°28' W 016°15'0 0.0
2017-Feb-17 05:28N 28°28' W 016°15'8 8.6
2017-Feb-17 04:33N 28°27' W 016°06'1515.5
2017-Feb-17 03:33N 28°33' W 015°49'1615.6
2017-Feb-17 02:33N 28°40' W 015°33'1616.5
2017-Feb-17 01:33N 28°41' W 015°15'1414.2
2017-Feb-17 00:33N 28°43' W 014°59'1312.9
2017-Feb-16 23:33N 28°44' W 014°44'1312.9
2017-Feb-16 22:33N 28°46' W 014°29'1313.0
2017-Feb-16 21:33N 28°47' W 014°15'1312.8
2017-Feb-16 20:33N 28°48' W 013°60'1312.6
2017-Feb-16 19:33N 28°49' W 013°46'1313.0
2017-Feb-16 18:33N 28°56' W 013°33'3 2.6
2017-Feb-16 17:30N 28°58' W 013°32'0 0.0
2017-Feb-16 15:24N 28°58' W 013°32'0 0.0
2017-Feb-16 14:30N 28°58' W 013°32'0 0.0
2017-Feb-16 13:30N 28°58' W 013°32'0 0.0
2017-Feb-16 12:30N 28°58' W 013°32'0 0.0
2017-Feb-16 11:33N 28°58' W 013°32'0 0.0
2017-Feb-16 10:33N 28°58' W 013°32'0 0.0
2017-Feb-16 09:24N 28°58' W 013°32'0 0.0
2017-Feb-16 08:30N 28°58' W 013°32'8 8.5
2017-Feb-16 07:33N 28°59' W 013°23'1716.6
2017-Feb-16 06:33N 29°06' W 013°05'1716.7
2017-Feb-16 05:33N 29°12' W 012°48'1716.8
2017-Feb-16 04:33N 29°19' W 012°30'2217.3
2017-Feb-16 03:19N 29°28' W 012°07'1317.5
2017-Feb-16 02:33N 29°33' W 011°53'1817.4
2017-Feb-16 01:32N 29°40' W 011°35'1717.1
2017-Feb-16 00:33N 29°47' W 011°17'1817.4
2017-Feb-15 23:29N 29°54' W 010°57'1617.3
2017-Feb-15 22:33N 30°01' W 010°40'  

Dump ship's entire track history